Simultaneous Nadir Overpasses (SNOs) Predictions

Prediction of SNOs between NOAA-20 and METOP-C Satellite Orbit:

Table of predicted SNOs for the next 14.0 days since TLE Epoch: 3/20/2021
Index Date (NOAA-20) Time (NOAA-20) Lat,Lon (NOAA-20) SZA (NOAA-20 ) Date (METOP-C) Time (METOP-C) Lat,Lon (METOP-C) SZA (METOP-C ) Distance(km) Time Diff (sec)
1 03/20/2021 02:31:59 72.59, 134.20 72.87 03/20/2021 02:31:05 72.59, 134.25 72.87 1.44 54
2 03/20/2021 03:22:43 -72.60, -58.49 107.15 03/20/2021 03:21:47 -72.57, -58.46 107.16 2.77 56
3 03/20/2021 04:13:29 72.59, 108.82 72.84 03/20/2021 04:12:27 72.57, 108.86 72.83 3.23 62
4 03/20/2021 05:04:12 -72.55, -83.77 107.23 03/20/2021 05:03:09 -72.55, -83.84 107.21 2.40 63
5 03/20/2021 05:54:58 72.54, 83.55 72.76 03/20/2021 05:53:49 72.54, 83.48 72.78 2.20 69
6 03/20/2021 06:45:42 -72.55,-109.15 107.25 03/20/2021 06:44:31 -72.53,-109.22 107.25 3.34 71
7 03/20/2021 07:36:26 72.44, 58.37 72.62 03/20/2021 07:35:12 72.47, 57.99 72.69 12.94 74
8 03/20/2021 08:27:09 -72.40,-134.22 107.44 03/20/2021 08:25:55 -72.41,-134.81 107.39 19.67 74
9 03/20/2021 09:17:50 72.14, 33.59 72.27 03/20/2021 09:16:40 72.14, 32.01 72.37 53.89 70
10 03/20/2021 10:08:33 -72.10,-159.01 107.80 03/20/2021 10:07:23 -72.08,-160.79 107.71 60.85 70
11 03/20/2021 10:59:14 71.83, 8.79 71.91 03/20/2021 10:58:08 71.81, 6.05 72.05 95.24 66



Historial Predications of SNOs between NOAA-20 and METOP-C
